1370131233784,19.4376
1370131293784,19.4006
1370131353784,19.4334
1370131413784,19.3856
1370131473784,19.4007
1370131533784,19.4135
1370131593784,19.4426
1370131653784,19.4150
1370131713784,19.4895
1370131773784,19.5001
1370131833784,19.4209
1370131893784,19.5581
1370131953784,19.4769
1370132013784,19.5251
1370132073784,19.5277
1370132133784,19.4720
1370132193784,19.4741
1370132253784,19.4622
1370132313784,19.4951
1370132373784,19.4488
1370132433784,19.4964
1370132493784,19.3972
1370132553784,19.4332
1370132613784,19.4662
1370132673784,19.4210
1370132733784,19.4029
1370132793784,19.4198
1370132853784,19.3524
1370132913784,19.4293
1370132973784,19.3679
1370133033784,19.4509
1370133093784,19.4287
1370133153784,19.4093
1370133213784,19.4354
1370133273784,19.4754
1370133333784,19.5204
1370133393784,19.4969
1370133453784,19.4763
1370133513784,19.5008
1370133573784,19.4324
1370133633784,19.4050
1370133693784,19.5325
1370133753784,19.4585
1370133813784,19.4710
1370133873784,19.4572
1370133933784,19.4435
1370133993784,19.5036
1370134053784,19.4151
1370134113784,19.3794
1370134173784,19.4933
1370134233784,19.4841
1370134293784,19.4668
1370134353784,19.4303
1370134413784,19.4442
1370134473784,19.4301
1370134533784,19.4012
1370134593784,19.4282
1370134653784,19.4761
1370134713784,19.3765
1370134773784,19.4778
1370134833794,19.4252
1370134893794,19.4011
1370134953794,19.4223
1370135013794,19.4720
1370135073794,19.4316
1370135133794,19.4140
1370135193794,19.4501
1370135253794,19.4423
1370135313794,19.4340
1370135373794,19.4257
1370135433794,19.3632
1370135493794,19.3262
1370135553794,19.3958
1370135613794,19.3744
1370135673794,19.4295
1370135733794,19.4724
1370135793794,19.3739
1370135853794,19.4368
1370135913794,19.4251
1370135973794,19.3509
1370136033794,19.4419
1370136093794,19.4405
1370136153794,19.4741
1370136213794,19.4750
1370136273794,19.3718
1370136333794,19.5293
1370136393794,19.4090
1370136453794,19.3856
1370136513794,19.4456
1370136573794,19.4481
1370136633794,19.4389
1370136693794,19.4879
1370136753794,19.4208
1370136813794,19.4582
1370136873794,19.3868
1370136933794,19.4323
1370136993794,19.4138
1370137053794,19.4013
1370137113794,19.4531
1370137173794,19.4028
1370137233794,19.4010
1370137293794,19.3988
1370137353794,19.3875
1370137413794,19.3351
1370137473794,19.3454
1370137533794,19.3573
1370137593794,19.3936
1370137653794,19.4269
1370137713794,19.4204
1370137773794,19.4713
1370137833794,19.4310
1370137893794,19.4465
1370137953794,19.4603
1370138013794,19.4581
1370138073794,19.5354
1370138133794,19.4767
1370138193794,19.4379
1370138253794,19.4595
1370138313794,19.4827
1370138373794,19.4952
1370138433805,19.5394
1370138493805,19.4390
1370138553805,19.4915
1370138613805,19.5021
1370138673805,19.4406
1370138733805,19.4706
1370138793805,19.4446
1370138853805,19.4495
1370138913805,19.4609
1370138973805,19.4443
1370139033805,19.4121
1370139093805,19.4153
1370139153805,19.4576
1370139213805,19.4414
1370139273805,19.4043
1370139333805,19.4558
1370139393805,19.4216
1370139453805,19.4352
1370139513805,19.5163
1370139573805,19.4565
1370139633805,19.4757
1370139693805,19.5249
1370139753805,19.4133
1370139813805,19.4827
1370139873805,19.4496
1370139933805,19.4587
1370139993805,19.4912
1370140053805,19.5300
1370140113805,19.4346
1370140173805,19.4430
1370140233805,19.4497
1370140293805,19.3845
1370140353805,19.4203
1370140413805,19.3750
1370140473805,19.3781
1370140533805,19.4572
1370140593805,19.4278
1370140653805,19.4206
1370140713805,19.4077
1370140773805,19.4647
1370140833805,19.3870
1370140893805,19.3707
1370140953805,19.4472
1370141013805,19.4179
1370141073805,19.3706
1370141133805,19.4407
1370141193805,19.4107
1370141253805,19.3779
1370141313805,19.3680
1370141373805,19.3801
1370141433805,19.3974
1370141493805,19.4254
1370141553805,19.3459
1370141613805,19.3273
1370141673805,19.3685
1370141733805,19.3595
1370141793805,19.3697
1370141853805,19.4252
1370141913805,19.4074
1370141973805,19.3675
1370142033815,19.3286
1370142093815,19.4227
1370142153815,19.3592
1370142213815,19.3440
1370142273815,19.3401
1370142333815,19.3369
1370142393815,19.3592
1370142453815,19.3104
1370142513815,19.3839
1370142573815,19.4753
1370142633815,19.4350
1370142693815,19.3528
1370142753815,19.3834
1370142813815,19.3420
1370142873815,19.3906
1370142933815,19.4014
1370142993815,19.3062
1370143053815,19.3977
1370143113815,19.3411
1370143173815,19.3342
1370143233815,19.3370
1370143293815,19.3084
1370143353815,19.3560
1370143413815,19.3438
1370143473815,19.3491
1370143533815,19.4317
1370143593815,19.3407
1370143653815,19.3290
1370143713815,19.3794
1370143773815,19.3867
1370143833815,19.4322
1370143893815,19.3720
1370143953815,19.3723
1370144013815,19.3762
1370144073815,19.3829
1370144133815,19.3002
1370144193815,19.2951
1370144253815,19.3286
1370144313815,19.3515
1370144373815,19.3029
1370144433815,19.3016
1370144493815,19.3586
1370144553815,19.3210
1370144613815,19.3339
1370144673815,19.2999
1370144733815,19.3431
1370144793815,19.3173
1370144853815,19.3103
1370144913815,19.2630
1370144973815,19.3213
1370145033815,19.2410
1370145093815,19.3640
1370145153815,19.2606
1370145213815,19.2892
1370145273815,19.3197
1370145333815,19.3167
1370145393815,19.3491
1370145453815,19.3612
1370145513815,19.3423
1370145573815,19.3269
1370145633825,19.4289
1370145693825,19.3372
1370145753825,19.3311
1370145813825,19.3449
1370145873825,19.3827
1370145933825,19.4345
1370145993825,19.3899
1370146053825,19.3531
1370146113825,19.3484
1370146173825,19.3927
1370146233825,19.3537
1370146293825,19.3658
1370146353825,19.3441
1370146413825,19.3606
1370146473825,19.3880
1370146533825,19.4201
1370146593825,19.3886
1370146653825,19.3405
1370146713825,19.4631
1370146773825,19.3739
1370146833825,19.4345
1370146893825,19.3903
1370146953825,19.3725
1370147013825,19.3995
1370147073825,19.4532
1370147133825,19.4617
1370147193825,19.4010
1370147253825,19.4595
1370147313825,19.4177
1370147373825,19.4789
1370147433825,19.4310
1370147493825,19.3747
1370147553825,19.3682
1370147613825,19.3767
1370147673825,19.4252
1370147733825,19.4414
1370147793825,19.3839
1370147853825,19.4149
1370147913825,19.4502
1370147973825,19.3359
1370148033825,19.3530
1370148093825,19.3549
1370148153825,19.3920
1370148213825,19.3730
1370148273825,19.3293
1370148333825,19.4025
1370148393825,19.3457
1370148453825,19.3684
1370148513825,19.3598
1370148573825,19.3755
1370148633825,19.4347
1370148693825,19.4159
1370148753825,19.4827
1370148813825,19.5526
1370148873825,19.6011
1370148933825,19.4612
1370148993825,19.4889
1370149053825,19.5403
1370149113825,19.5249
1370149173825,19.4279
1370149233835,19.5512
1370149293835,19.4434
1370149353835,19.4485
1370149413835,19.5383
1370149473835,19.5259
1370149533835,19.6101
1370149593835,19.6021
1370149653835,19.6716
1370149713835,19.6604
1370149773835,19.6617
1370149833835,19.7390
1370149893835,19.8379
1370149953835,19.9383
1370150013835,19.8235
1370150073835,19.8179
1370150133835,19.8295
1370150193835,19.8827
1370150253835,19.8549
1370150313835,19.9068
1370150373835,19.9122
1370150433835,19.8525
1370150493835,19.8193
1370150553835,19.7978
1370150613835,19.7905
1370150673835,19.6557
1370150733835,19.6580
1370150793835,19.7101
1370150853835,19.7274
1370150913835,19.7552
1370150973835,19.7279
1370151033835,19.7523
1370151093835,19.7176
1370151153835,19.7175
1370151213835,19.7372
1370151273835,19.7439
1370151333835,19.6369
1370151393835,19.6775
1370151453835,19.6406
1370151513835,19.6156
1370151573835,19.5841
1370151633835,19.6424
1370151693835,19.6685
1370151753835,19.7120
1370151813835,19.5869
1370151873835,19.5842
1370151933835,19.5330
1370151993835,19.6263
1370152053835,19.5568
1370152113835,19.5486
1370152173835,19.5139
1370152233835,19.5417
1370152293835,19.6215
1370152353835,19.5701
1370152413835,19.4878
1370152473835,19.5066
1370152533835,19.5253
1370152593835,19.5318
1370152653835,19.5306
1370152713835,19.4663
1370152773835,19.5689
1370152833844,19.4734
1370152893844,19.5035
1370152953844,19.5267
1370153013844,19.5252
1370153073844,19.4787
1370153133844,19.4668
1370153193844,19.4882
1370153253844,19.4792
1370153313844,19.4563
1370153373844,19.4429
1370153433844,19.5723
1370153493844,19.5141
1370153553844,19.4460
1370153613844,19.5317
1370153673844,19.4481
1370153733844,19.4446
1370153793844,19.4763
1370153853844,19.4503
1370153913844,19.4904
1370153973844,19.4888
1370154033844,19.5319
1370154093844,19.4942
1370154153844,19.5141
1370154213844,19.5244
1370154273844,19.4359
1370154333844,19.4633
1370154393844,19.4391
1370154453844,19.4699
1370154513844,19.4599
1370154573844,19.4919
1370154633844,19.4273
1370154693844,19.5780
1370154753844,19.6613
1370154813844,19.6190
1370154873844,19.5125
1370154933844,19.5247
1370154993844,19.4224
1370155053844,19.4679
1370155113844,19.4068
1370155173844,19.4329
1370155233844,19.4471
1370155293844,19.4500
1370155353844,19.4455
1370155413844,19.3310
1370155473844,19.4194
1370155533844,19.3628
1370155593844,19.4124
1370155653844,19.3813
1370155713844,19.3990
1370155773844,19.4695
1370155833844,19.4581
1370155893844,19.4313
1370155953844,19.4432
1370156013844,19.3952
1370156073844,19.4404
1370156133844,19.3994
1370156193844,19.4210
1370156253844,19.4317
1370156313844,19.4427
1370156373844,19.4650
1370156433853,19.4020
1370156493853,19.4151
1370156553853,19.4604
1370156613853,19.5090
1370156673853,19.3984
1370156733853,19.4364
1370156793853,19.4618
1370156853853,19.4988
1370156913853,19.4914
1370156973853,19.4158
1370157033853,19.4650
1370157093853,19.4729
1370157153853,19.3772
1370157213853,19.3679
1370157273853,19.3855
1370157333853,19.3747
1370157393853,19.4165
1370157453853,19.4298
1370157513853,19.3783
1370157573853,19.4245
1370157633853,19.3884
1370157693853,19.3688
1370157753853,19.3871
1370157813853,19.3613
1370157873853,19.3672
1370157933853,19.4031
1370157993853,19.4276
1370158053853,19.4532
1370158113853,19.4002
1370158173853,19.4868
1370158233853,19.4273
1370158293853,19.4151
1370158353853,19.4220
1370158413853,19.3920
1370158473853,19.4249
1370158533853,19.4365
1370158593853,19.3692
1370158653853,19.4226
1370158713853,19.3973
1370158773853,19.4815
1370158833853,19.4169
1370158893853,19.3808
1370158953853,19.4120
1370159013853,19.4296
1370159073853,19.3751
1370159133853,19.4414
1370159193853,19.4226
1370159253853,19.4929
1370159313853,19.3923
1370159373853,19.4275
1370159433853,19.4031
1370159493853,19.4340
1370159553853,19.4321
1370159613853,19.3860
1370159673853,19.3876
1370159733853,19.3425
1370159793853,19.3816
1370159853853,19.3890
1370159913853,19.3016
1370159973853,19.3325
1370160033863,19.1960
1370160093863,19.3204
1370160153863,19.3659
1370160213863,19.3607
1370160273863,19.4049
1370160333863,19.3840
1370160393863,19.4547
1370160453863,19.5420
1370160513863,19.5226
1370160573863,19.3799
1370160633863,19.4121
1370160693863,19.3806
1370160753863,19.3524
1370160813863,19.3887
1370160873863,19.3663
1370160933863,19.3415
1370160993863,19.4038
1370161053863,19.3617
1370161113863,19.3952
1370161173863,19.4252
1370161233863,19.3670
1370161293863,19.3439
1370161353863,19.3887
1370161413863,19.3786
1370161473863,19.4161
1370161533863,19.4066
1370161593863,19.4267
1370161653863,19.4522
1370161713863,19.4216
1370161773863,19.4080
1370161833863,19.4098
1370161893863,19.3903
1370161953863,19.3483
1370162013863,19.3752
1370162073863,19.3208
1370162133863,19.5718
1370162193863,19.3504
1370162253863,19.3179
1370162313863,19.4204
1370162373863,19.3844
1370162433863,19.3707
1370162493863,19.3669
1370162553863,19.3798
1370162613863,19.4250
1370162673863,19.3796
1370162733863,19.3739
1370162793863,19.3550
1370162853863,19.3328
1370162913863,19.3789
1370162973863,19.3816
1370163033863,19.3791
1370163093863,19.3597
1370163153863,19.3708
1370163213863,19.3554
1370163273863,19.2920
1370163333863,19.3406
1370163393863,19.3631
1370163453863,19.3733
1370163513863,19.3569
1370163573863,19.3909
1370163633872,19.3647
1370163693872,19.3301
1370163753872,19.3872
1370163813872,19.3744
1370163873872,19.3716
1370163933872,19.3648
1370163993872,19.3622
1370164053872,19.3686
1370164113872,19.4762
1370164173872,19.3832
1370164233872,19.3821
1370164293872,19.3814
1370164353872,19.4319
1370164413872,19.4390
1370164473872,19.4148
1370164533872,19.4170
1370164593872,19.4239
1370164653872,19.3258
1370164713872,19.4584
1370164773872,19.4045
1370164833872,19.3946
1370164893872,19.3729
1370164953872,19.4184
1370165013872,19.3787
1370165073872,19.4590
1370165133872,19.4739
1370165193872,19.4263
1370165253872,19.4249
1370165313872,19.4150
1370165373872,19.5074
1370165433872,19.4387
1370165493872,19.4533
1370165553872,19.4982
1370165613872,19.4996
1370165673872,19.5508
1370165733872,19.4508
1370165793872,19.4944
1370165853872,19.5426
1370165913872,19.5312
1370165973872,19.4671
1370166033872,19.4529
1370166093872,19.4691
1370166153872,19.3999
1370166213872,19.4485
1370166273872,19.4840
1370166333872,19.4041
1370166393872,19.5261
1370166453872,19.4960
1370166513872,19.4901
1370166573872,19.4775
1370166633872,19.4976
1370166693872,19.4725
1370166753872,19.5329
1370166813872,19.5361
1370166873872,19.3938
1370166933872,19.4652
1370166993872,19.4684
1370167053872,19.4556
1370167113872,19.4930
1370167173872,19.4248
1370167233881,19.5020
1370167293881,19.4954
1370167353881,19.4757
1370167413881,19.5159
1370167473881,19.4510
1370167533881,19.4664
1370167593881,19.4286
1370167653881,19.4289
1370167713881,19.4736
1370167773881,19.4268
1370167833881,19.4445
1370167893881,19.5242
1370167953881,19.5337
1370168013881,19.5256
1370168073881,19.4917
1370168133881,19.4865
1370168193881,19.5516
1370168253881,19.5696
1370168313881,19.5418
1370168373881,19.5705
1370168433881,19.5240
1370168493881,19.5454
1370168553881,19.5471
1370168613881,19.5826
1370168673881,19.6207
1370168733881,19.5647
1370168793881,19.5779
1370168853881,19.5670
1370168913881,19.5314
1370168973881,19.5501
1370169033881,19.5284
1370169093881,19.5692
1370169153881,19.5783
1370169213881,19.5609
1370169273881,19.5592
1370169333881,19.5654
1370169393881,19.4803
1370169453881,19.4839
1370169513881,19.4955
1370169573881,19.5377
1370169633881,19.5595
1370169693881,19.5423
1370169753881,19.5104
1370169813881,19.5273
1370169873881,19.5568
1370169933881,19.5108
1370169993881,19.4608
1370170053881,19.5770
1370170113881,19.5417
1370170173881,19.5446
1370170233881,19.5200
1370170293881,19.4786
1370170353881,19.5142
1370170413881,19.4872
1370170473881,19.6562
1370170533881,19.5232
1370170593881,19.5647
1370170653881,19.5787
1370170713881,19.7116
1370170773881,19.6835
1370170833890,19.7271
1370170893890,19.7274
1370170953890,19.6561
1370171013890,19.6745
1370171073890,19.6585
1370171133890,19.6567
1370171193890,19.5867
1370171253890,19.6160
1370171313890,19.5961
1370171373890,19.6046
1370171433890,19.5258
1370171493890,19.5976
1370171553890,19.5348
1370171613890,19.5251
1370171673890,19.5606
1370171733890,19.5533
1370171793890,19.5516
1370171853890,19.6180
1370171913891,19.5864
1370171973891,19.5911
1370172033891,19.5500
1370172093891,19.5315
1370172153891,19.4939
1370172213890,19.4898
1370172273890,19.5480
1370172333890,19.5718
1370172393890,19.5416
1370172453890,19.5056
1370172513890,19.4870
1370172573890,19.5162
1370172633890,19.5230
1370172693890,19.5009
1370172753890,19.5770
1370172813890,19.5149
1370172873890,19.4573
1370172933890,19.5414
1370172993890,19.5276
1370173053890,19.4698
1370173113890,19.5196
1370173173890,19.4781
1370173233891,19.4382
1370173293891,19.4224
1370173353891,19.4703
1370173413891,19.4934
1370173473891,19.4307
1370173533890,19.4805
1370173593890,19.4743
1370173653890,19.5384
1370173713890,19.5597
1370173773890,19.4752
1370173833890,19.5507
1370173893890,19.3423
1370173953890,19.5036
1370174013890,19.4712
1370174073890,19.4536
1370174133890,19.5129
1370174193890,19.4821
1370174253890,19.4699
1370174313890,19.7587
1370174373890,19.4807
1370174433900,19.5250
1370174493900,19.5272
1370174553900,19.5085
1370174613900,19.4529
1370174673900,19.4537
1370174733900,19.4981
1370174793900,19.5417
1370174853900,19.4982
1370174913900,19.6082
1370174973900,19.5678
1370175033900,19.5005
1370175093900,19.5011
1370175153900,19.5408
1370175213900,19.5862
1370175273900,19.5235
1370175333900,19.5312
1370175393900,19.4548
1370175453900,19.4703
1370175513900,19.4752
1370175573900,19.5060
1370175633900,19.5089
1370175693900,19.4899
1370175753900,19.4563
1370175813900,19.5289
1370175873900,19.4450
1370175933900,19.5765
1370175993900,19.5526
1370176053900,19.5364
1370176113900,19.5209
1370176173900,19.6303
1370176233900,19.6063
1370176293900,19.6108
1370176353900,19.6223
1370176413900,19.5828
1370176473900,19.6398
1370176533900,19.5641
1370176593900,19.6167
1370176653900,19.5589
1370176713900,19.5605
1370176773900,19.5745
1370176833900,19.5944
1370176893900,19.4967
1370176953900,19.5266
1370177013900,19.4682
1370177073900,19.5090
1370177133900,19.6153
1370177193900,19.5568
1370177253900,19.5764
1370177313900,19.4969
1370177373900,19.4678
1370177433900,19.4796
1370177493900,19.5149
1370177553900,19.5057
1370177613900,19.5450
1370177673900,19.4808
1370177733900,19.5357
1370177793900,19.5411
1370177853900,19.6283
1370177913900,19.5349
1370177973900,19.5752
1370178033909,19.6141
1370178093909,19.5816
1370178153909,19.5406
1370178213909,19.6260
1370178273909,19.6234
1370178333909,19.6141
1370178393909,19.6093
1370178453909,19.6103
1370178513909,19.6131
1370178573909,19.5484
1370178633909,19.5859
1370178693909,19.5419
1370178753909,19.5931
1370178813909,19.6106
1370178873909,19.6092
1370178933909,19.5611
1370178993909,19.5781
1370179053909,19.5996
1370179113909,19.6050
1370179173909,19.5388
1370179233909,19.5787
1370179293909,19.5735
1370179353909,19.3434
1370179413909,19.5916
1370180553909,19.5371
1370180613909,19.4475
1370180673909,19.6326
1370180733909,19.5814
1370180793909,19.6060
1370180853909,19.5238
1370180913909,19.5027
1370180973909,19.5398
1370181033909,19.5668
1370181093909,19.5398
1370181153909,19.5326
1370181213909,19.5622
1370181273909,19.4733
1370181333909,19.5630
1370181393909,19.5404
1370181453909,19.4444
1370181513909,19.5131
1370181573909,19.5090
1370181633918,19.5446
1370181693918,19.5220
1370181753918,19.5813
1370181813918,19.5606
1370181873918,19.5605
1370181933918,19.5761
1370181993918,19.5679
1370182053918,19.6359
1370182113918,19.5904
1370182173918,19.5430
1370182233918,19.5274
1370182293918,19.5641
1370182353918,19.4959
1370182413918,19.4894
1370182473918,19.4839
1370182533918,19.5047
1370182593918,19.5501
1370182653918,19.5400
1370182713918,19.5088
1370182773918,19.4973
1370182833918,19.5202
1370182893918,19.4430
1370182953918,19.5448
1370183013918,19.5427
1370183073918,19.5281
1370183133918,19.5596
1370183193918,19.5565
1370183253918,19.5515
1370183313918,19.5082
1370183373918,19.6403
1370183433918,19.5924
1370183493918,19.5739
1370183553918,19.6092
1370183613918,19.5729
1370183673918,19.5968
1370183733918,19.4923
1370183793918,19.5191
1370183853918,19.5157
1370183913918,19.5810
1370183973918,19.5768
1370184033918,19.5952
1370184093918,19.5724
1370184153918,19.5977
1370184213918,19.5516
1370184273918,19.5678
1370184333918,19.6304
1370184393918,19.6138
1370184453918,19.6156
1370184513918,19.6447
1370184573918,19.5875
1370184633918,19.6660
1370184693918,19.7037
1370184753918,19.5475
1370184813918,19.5635
1370184873918,19.6747
1370184933918,19.5743
1370184993918,19.5927
1370185053918,19.6166
1370185113918,19.6279
1370185173918,19.6300
1370185233927,19.6050
1370185293927,19.5751
1370185353927,19.5884
1370185413927,19.5681
1370185473927,19.6076
1370185533927,19.6355
1370185593927,19.6029
1370185653927,19.5520
1370185713927,19.6363
1370185773927,19.6346
1370185833927,19.5913
1370185893927,19.6065
1370185953927,19.7199
1370186013927,19.7039
1370186073927,19.6942
1370186133927,19.6470
1370186193927,19.5882
1370186253927,19.6506
1370186313927,19.7037
1370186373927,19.5979
1370186433927,19.6616
1370186493927,19.6894
1370186553927,19.7218
1370186613927,19.6806
1370186673927,19.7265
1370186733927,19.7132
1370186793927,19.7751
1370186853927,19.6670
1370186913927,19.7341
1370186973927,19.6675
1370187033927,19.6618
1370187093927,19.6902
1370187153927,19.5764
1370187213927,19.6086
1370187273927,19.6846
1370187333927,19.6295
1370187393927,19.7400
1370187453927,19.6068
1370187513927,19.6596
1370187573927,19.6152
1370187633927,19.6550
1370187693927,19.6929
1370187753927,19.6671
1370187813927,19.6164
1370187873927,19.6942
1370187933927,19.7130
1370187993927,19.7464
1370188053927,19.7920
1370188113927,19.8131
1370188173927,19.7681
1370188233927,19.8013
1370188293927,19.7604
1370188353927,19.7134
1370188413927,19.7060
1370188473927,19.7169
1370188533927,19.6682
1370188593927,19.6763
1370188653927,19.8771
1370188713927,19.7409
1370188773927,19.6613
1370188833937,19.6608
1370188893937,19.6743
1370188953937,19.5725
1370189013937,19.6395
1370189073937,19.6760
1370189133937,19.7191
1370189193937,19.5892
1370189253937,19.6480
1370189313937,19.6186
1370189373937,19.6324
1370189433937,19.6277
1370189493937,19.6383
1370189553937,19.6894
1370189613937,19.6182
1370189673937,19.6424
1370189733937,19.6043
1370189793937,19.7216
1370189853937,19.7236
1370189913937,19.8601
1370189973937,19.7328
1370190033937,19.7484
1370190093937,19.7569
1370190153937,19.8280
1370190213937,19.7528
1370190273937,19.6930
1370190333937,19.6688
1370190393937,19.6708
1370190453937,19.7061
1370190513937,19.6853
1370190573937,19.6324
1370190633937,19.6684
1370190693937,19.6629
1370190753937,19.6880
1370190813937,19.6814
1370190873937,19.7066
1370190933937,19.7239
1370190993937,19.7918
1370191053937,19.7479
1370191113937,19.7099
1370191173937,19.6708
1370191233937,19.7663
1370191293937,19.7417
1370191353937,19.6601
1370191413937,19.6502
1370191473937,19.6708
1370191533937,19.6022
1370191593937,19.6811
1370191653937,19.6383
1370191713937,19.6893
1370191773937,19.6183
1370191833937,19.6656
1370191893937,19.6968
1370191953937,19.7615
1370192013937,19.6907
1370192073937,19.7490
1370192133937,19.6590
1370192193937,19.7250
1370192253937,19.7487
1370192313937,19.7033
1370192373937,19.6341
1370192433947,19.7127
1370192493947,19.7173
1370192553947,19.7028
1370192613947,19.6541
1370192673947,19.6764
1370192733947,19.6728
1370192793947,19.6712
1370192853947,19.6774
1370192913947,19.7105
1370192973947,19.7551
1370193033947,19.7211
1370193093947,19.7147
1370193153947,19.6729
1370193213947,19.6899
1370193273947,19.6837
1370193333947,19.7334
1370193393947,19.6554
1370193453947,19.6276
1370193513947,19.6724
1370193573947,19.6654
1370193633947,19.6744
1370193693947,19.6135
1370193753947,19.6019
1370193813947,19.5982
1370193873947,19.5983
1370193933947,19.6389
1370193993947,19.6581
1370194053947,19.6444
1370194113947,19.6428
1370194173947,19.5905
1370194233947,19.6483
1370194293947,19.6295
1370194353947,19.6745
1370194413947,19.6064
1370194473947,19.6268
1370194533947,19.6685
1370194593947,19.6058
1370194653947,19.5937
1370194713947,19.5690
1370194773947,19.6295
1370194833947,19.6778
1370194893947,19.6147
1370194953947,19.6688
1370195013947,19.6995
1370195073947,19.6443
1370195133947,19.6286
1370195193947,19.6224
1370195253947,19.6197
1370195313947,19.6823
1370195373947,19.6701
1370195433947,19.6277
1370195493947,19.7095
1370195553947,19.6300
1370195613947,19.6576
1370195673947,19.6036
1370195733947,19.6496
1370195793947,19.6356
1370195853947,19.6692
1370195913947,19.6742
1370195973947,19.7464
1370196033957,19.6772
1370196093957,19.7117
1370196153957,19.6759
1370196213957,19.6996
1370196273957,19.7027
1370196333957,19.6750
1370196393957,19.7410
1370196453957,19.6887
1370196513957,19.6974
1370196573957,19.6692
1370196633957,19.6762
1370196693957,19.6452
1370196753957,19.6279
1370196813957,19.6411
1370196873957,19.6411
1370196933957,19.6241
1370196993957,19.5833
1370197053957,19.6804
1370197113957,19.5524
1370197173957,19.6008
1370197233957,19.6056
1370197293957,19.6406
1370197353957,19.6503
1370197413957,19.6988
1370197473957,19.6517
1370197533957,19.7241
1370197593957,19.7533
1370197653957,19.6967